Location: Cahas Mountain Overlook
(37.0833°N, 80.1000°W)
Time: 03:05:31
(UTC-05:00)

Vanguard 1 Rocket - All Passes

Search period start: 15 February 2026 00:00
Search period end: 25 February 2026 00:00
Orbit: 652 x 4215 km, 34.3° (Epoch: 12 February)

Date Brightness Start Highest point End Pass type
(mag) Time Alt. Az. Time Alt. Az. Time Alt. Az.
15 Feb - 12:37:47 10° SSW 12:45:30 40° SE 12:59:34 10° E daylight
15 Feb - 15:00:43 10° WSW 15:12:08 77° SSE 15:34:24 10° E daylight
15 Feb - 17:26:15 10° W 17:42:45 78° SSW 18:08:57 10° ESE daylight
15 Feb - 19:54:03 10° W 20:14:39 53° SSW 20:38:49 10° SE visible
15 Feb - 22:27:55 10° W 22:44:26 22° SW 23:00:16 10° S visible
16 Feb - 11:28:04 10° S 11:33:41 22° SE 11:42:07 10° E daylight
16 Feb - 13:49:00 10° WSW 13:58:17 65° SSE 14:16:49 10° E daylight
16 Feb - 16:13:30 10° W 16:27:09 81° S 16:51:52 10° E daylight
16 Feb - 18:40:01 10° W 18:58:38 65° SSW 19:24:23 10° SE visible
16 Feb - 21:10:01 10° W 21:29:35 34° SW 21:50:09 10° SSE visible
17 Feb - 12:37:55 10° SW 12:45:26 47° SE 12:59:38 10° E daylight
17 Feb - 15:01:15 10° WSW 15:12:21 80° S 15:34:14 10° E daylight
17 Feb - 17:26:44 10° W 17:42:44 74° SSW 18:08:34 10° ESE daylight
17 Feb - 19:54:34 10° W 20:14:08 47° SW 20:37:42 10° SSE visible
17 Feb - 22:30:37 10° W 22:43:42 17° SW 22:56:40 10° SSW visible
18 Feb - 11:27:41 10° SSW 11:33:28 27° SE 11:42:46 10° E daylight
18 Feb - 13:49:28 10° WSW 13:58:28 70° SSE 14:16:41 10° E daylight
18 Feb - 16:14:04 10° W 16:27:18 79° S 16:51:37 10° ESE daylight
18 Feb - 18:40:28 10° W 18:58:22 58° SSW 19:23:35 10° SE visible
18 Feb - 21:11:10 10° W 21:28:56 28° SW 21:48:04 10° S visible
19 Feb - 10:20:01 10° SE 10:22:04 11° SE 10:24:24 10° ESE daylight
19 Feb - 12:38:12 10° SW 12:45:30 53° SSE 12:59:39 10° E daylight
19 Feb - 15:01:51 10° W 15:12:37 80° S 15:34:04 10° E daylight
19 Feb - 17:27:15 10° W 17:42:42 68° SSW 18:08:01 10° ESE daylight
19 Feb - 19:55:16 10° W 20:13:38 40° SW 20:36:14 10° SSE visible
19 Feb - 22:36:05 10° WSW 22:43:08 12° SW 22:50:13 10° SW visible
20 Feb - 11:27:36 10° SSW 11:33:24 33° SE 11:43:11 10° E daylight
20 Feb - 13:50:01 10° WSW 13:58:45 75° SSE 14:16:34 10° E daylight
20 Feb - 16:14:38 10° W 16:27:28 76° S 16:51:17 10° ESE daylight
20 Feb - 18:41:02 10° W 18:58:06 51° SSW 19:22:31 10° SE visible
20 Feb - 21:12:57 10° W 21:28:22 22° SW 21:45:15 10° S visible
21 Feb - 10:18:23 10° SSE 10:21:54 16° SE 10:26:30 10° E daylight
21 Feb - 12:38:37 10° SW 12:45:42 60° SSE 12:59:40 10° E daylight
21 Feb - 15:02:27 10° W 15:12:55 80° S 15:33:52 10° E daylight
21 Feb - 17:27:48 10° W 17:42:39 62° SSW 18:07:16 10° SE daylight
21 Feb - 19:56:14 10° W 20:13:13 33° SW 20:34:21 10° SSE visible
22 Feb - 11:27:44 10° SW 11:33:28 40° SSE 11:43:29 10° E daylight
22 Feb - 13:50:38 10° WSW 13:59:06 78° S 14:16:28 10° E daylight
22 Feb - 16:15:13 10° W 16:27:38 71° SSW 16:50:48 10° ESE daylight
22 Feb - 18:41:43 10° W 18:57:52 44° SSW 19:21:08 10° SSE visible
22 Feb - 21:15:49 10° WSW 21:27:57 17° SW 21:41:12 10° SSW visible
23 Feb - 10:17:46 10° S 10:21:51 20° SE 10:27:36 10° E daylight
23 Feb - 12:39:08 10° WSW 12:46:02 67° SSE 12:59:40 10° E daylight
23 Feb - 15:03:04 10° W 15:13:14 77° S 15:33:37 10° ESE daylight
23 Feb - 17:28:24 10° W 17:42:38 55° SSW 18:06:17 10° SE daylight
23 Feb - 19:57:36 10° W 20:12:53 27° SW 20:31:54 10° S visible
24 Feb - 11:28:02 10° SW 11:33:40 47° SSE 11:43:42 10° E daylight
24 Feb - 13:51:15 10° W 13:59:29 78° S 14:16:22 10° E daylight
24 Feb - 16:15:49 10° W 16:27:47 65° SSW 16:50:10 10° ESE daylight
24 Feb - 18:42:36 10° W 18:57:42 37° SW 19:19:23 10° SSE visible
24 Feb - 21:21:50 10° WSW 21:27:43 11° SW 21:33:54 10° SSW visible
